Weather History for Grants-Milan, NM

Change the Weather History Date:

Wednesday, October 3, 2012

  Actual Average Record
Temperature  
Mean Temperature 58 °F -  
Max Temperature 84 °F 75 °F 87 °F (1993)
Min Temperature 32 °F 38 °F 25 °F (1961)
Degree Days  
Heating Degree Days 7    
Growing Degree Days 8 (Base 50)    
Moisture  
Dew Point 23 °F    
Average Humidity 31    
Maximum Humidity 69    
Minimum Humidity 10    
Precipitation  
Precipitation 0.00 in - - ()
Sea Level Pressure  
Sea Level Pressure 30.19 in    
Wind  
Wind Speed 7 mph (NW)    
Max Wind Speed 21 mph    
Max Gust Speed 28 mph    
Visibility 10 miles    
Events      
Averages and records for this station are not official NWS values.
T = Trace of Precipitation, MM = Missing Value Source: NWS Daily Summary

Daily Weather History Graph

Daily Weather History Graph

Search for Another Location

Airport:

Trip Planner

Search our weather history database for the weather conditions in past years. The results will help you decide how hot, cold, wet, or windy it might be!

Date:

Astronomy

Oct. 03, 2012 Rise Set
Actual Time 7:08 AM MDT 6:51 PM MDT
Civil Twilight 6:43 AM MDT 7:17 PM MDT
Nautical Twilight 6:13 AM MDT 7:46 PM MDT
Astronomical Twilight 5:44 AM MDT 8:16 PM MDT
Moon 8:55 PM MDT (10/3) 10:25 AM MDT (10/3)
Length of Visible Light 12h 34m
Length of Day
11h 43m
Waning Gibbous, 88% of the Moon is Illuminated
Oct 3
Waning Gibbous
Oct 8
Last Quarter
Oct 15
New
Oct 21
First Quarter
Oct 29
Full

Hourly Weather History & Observations

Time (MDT) Temp. Windchill Dew Point Humidity Pressure Visibility Wind Dir Wind Speed Gust Speed Precip Events Conditions
12:15 AM 48.2 °F - 26.6 °F 43% 30.17 in 10.0 mi NW 6.9 mph - N/A   Clear
12:35 AM 46.4 °F 42.9 °F 26.6 °F 46% 30.17 in 10.0 mi NW 6.9 mph - N/A   Clear
12:55 AM 44.6 °F 40.2 °F 26.6 °F 49% 30.16 in 10.0 mi NW 8.1 mph - N/A   Clear
1:15 AM 46.4 °F 42.4 °F 26.6 °F 46% 30.17 in 10.0 mi NW 8.1 mph - N/A   Clear
1:35 AM 46.4 °F 43.5 °F 26.6 °F 46% 30.17 in 10.0 mi NW 5.8 mph - N/A   Clear
1:55 AM 42.8 °F 39.3 °F 26.6 °F 53% 30.17 in 10.0 mi NNW 5.8 mph - N/A   Clear
2:15 AM 41.0 °F 36.4 °F 26.6 °F 57% 30.17 in 10.0 mi NW 6.9 mph - N/A   Clear
2:35 AM 41.0 °F 38.0 °F 26.6 °F 57% 30.17 in 10.0 mi NNW 4.6 mph - N/A   Clear
2:55 AM 39.2 °F 34.2 °F 24.8 °F 56% 30.18 in 10.0 mi NW 6.9 mph - N/A   Clear
3:15 AM 42.8 °F 39.3 °F 26.6 °F 53% 30.18 in 10.0 mi NW 5.8 mph - N/A   Clear
3:35 AM 39.2 °F 35.0 °F 24.8 °F 56% 30.18 in 10.0 mi NW 5.8 mph - N/A   Clear
4:15 AM 39.2 °F 35.9 °F 24.8 °F 56% 30.18 in 10.0 mi NW 4.6 mph - N/A   Clear
4:35 AM 35.6 °F 32.8 °F 24.8 °F 65% 30.18 in 10.0 mi NNW 3.5 mph - N/A   Clear
4:55 AM 35.6 °F 30.7 °F 24.8 °F 65% 30.18 in 10.0 mi NW 5.8 mph - N/A   Clear
5:15 AM 37.4 °F 33.8 °F 24.8 °F 60% 30.18 in 10.0 mi WNW 4.6 mph - N/A   Clear
5:55 AM 35.6 °F 32.8 °F 23.0 °F 60% 30.19 in 10.0 mi North 3.5 mph - N/A   Clear
6:15 AM 33.8 °F 30.8 °F 23.0 °F 65% 30.20 in 10.0 mi North 3.5 mph - N/A   Clear
6:55 AM 33.8 °F 30.8 °F 23.0 °F 65% 30.20 in 10.0 mi North 3.5 mph - N/A   Clear
7:15 AM 32.0 °F 28.7 °F 23.0 °F 69% 30.20 in 10.0 mi North 3.5 mph - N/A   Clear
7:35 AM 32.0 °F 28.7 °F 23.0 °F 69% 30.20 in 10.0 mi NW 3.5 mph - N/A   Clear
7:55 AM 37.4 °F 34.9 °F 24.8 °F 60% 30.20 in 10.0 mi NW 3.5 mph - N/A   Clear
8:15 AM 44.6 °F - 26.6 °F 49% 30.21 in 10.0 mi Calm Calm - N/A   Clear
8:35 AM 46.4 °F - 24.8 °F 43% 30.21 in 10.0 mi Calm Calm - N/A   Clear
8:55 AM 50.0 °F - 24.8 °F 37% 30.22 in 10.0 mi Calm Calm - N/A   Clear
9:15 AM 51.8 °F - 24.8 °F 35% 30.22 in 10.0 mi NW 3.5 mph - N/A   Clear
9:35 AM 55.4 °F - 26.6 °F 33% 30.22 in 10.0 mi WNW 3.5 mph - N/A   Clear
9:55 AM 60.8 °F - 26.6 °F 27% 30.22 in 10.0 mi Calm Calm - N/A   Clear
10:15 AM 64.4 °F - 26.6 °F 24% 30.22 in 10.0 mi Calm Calm - N/A   Clear
10:35 AM 66.2 °F - 26.6 °F 23% 30.22 in 10.0 mi Calm Calm - N/A   Clear
10:55 AM 69.8 °F - 26.6 °F 20% 30.21 in 10.0 mi Calm Calm - N/A   Clear
11:15 AM 71.6 °F - 26.6 °F 19% 30.21 in 10.0 mi Calm Calm - N/A   Clear
11:35 AM 77.0 °F - 26.6 °F 16% 30.21 in 10.0 mi North 5.8 mph - N/A   Clear
12:15 PM 80.6 °F - 23.0 °F 12% 30.19 in 10.0 mi NW 16.1 mph 24.2 mph N/A   Clear
12:35 PM 82.4 °F - 23.0 °F 11% 30.19 in 10.0 mi WNW 13.8 mph 24.2 mph N/A   Clear
12:55 PM 82.4 °F - 23.0 °F 11% 30.18 in 10.0 mi NW 18.4 mph 25.3 mph N/A   Clear
1:15 PM 82.4 °F - 21.2 °F 10% 30.18 in 10.0 mi NW 19.6 mph 26.5 mph N/A   Clear
1:35 PM 82.4 °F - 21.2 °F 10% 30.17 in 10.0 mi NW 18.4 mph 27.6 mph N/A   Clear
1:55 PM 82.4 °F - 19.4 °F 10% 30.17 in 10.0 mi NW 20.7 mph 27.6 mph N/A   Clear
2:15 PM 82.4 °F - 21.2 °F 10% 30.16 in 10.0 mi NW 15.0 mph 26.5 mph N/A   Clear
2:35 PM 82.4 °F - 21.2 °F 10% 30.16 in 10.0 mi NW 13.8 mph 21.9 mph N/A   Clear
2:55 PM 82.4 °F - 21.2 °F 10% 30.15 in 10.0 mi NW 13.8 mph 23.0 mph N/A   Clear
3:15 PM 84.2 °F - 21.2 °F 10% 30.15 in 10.0 mi NW 16.1 mph 25.3 mph N/A   Clear
3:35 PM 84.2 °F - 21.2 °F 10% 30.15 in 10.0 mi WNW 15.0 mph 21.9 mph N/A   Clear
3:55 PM 82.4 °F - 23.0 °F 11% 30.15 in 10.0 mi WNW 16.1 mph 26.5 mph N/A   Clear
4:15 PM 82.4 °F - 23.0 °F 11% 30.15 in 10.0 mi NW 10.4 mph 18.4 mph N/A   Clear
4:35 PM 82.4 °F - 23.0 °F 11% 30.15 in 10.0 mi West 16.1 mph 25.3 mph N/A   Clear
4:55 PM 82.4 °F - 23.0 °F 11% 30.15 in 10.0 mi WNW 19.6 mph 23.0 mph N/A   Clear
5:15 PM 82.4 °F - 23.0 °F 11% 30.15 in 10.0 mi West 16.1 mph 19.6 mph N/A   Clear
5:35 PM 80.6 °F - 23.0 °F 12% 30.15 in 10.0 mi West 13.8 mph 21.9 mph N/A   Clear
5:55 PM 78.8 °F - 21.2 °F 12% 30.16 in 10.0 mi WNW 13.8 mph 21.9 mph N/A   Clear
6:15 PM 78.8 °F - 21.2 °F 12% 30.16 in 10.0 mi West 11.5 mph 21.9 mph N/A   Clear
6:35 PM 77.0 °F - 21.2 °F 12% 30.17 in 10.0 mi West 12.7 mph 19.6 mph N/A   Clear
6:55 PM 73.4 °F - 21.2 °F 14% 30.17 in 10.0 mi West 12.7 mph 18.4 mph N/A   Clear
7:15 PM 71.6 °F - 21.2 °F 15% 30.18 in 10.0 mi West 8.1 mph - N/A   Clear
7:35 PM 69.8 °F - 19.4 °F 15% 30.18 in 10.0 mi West 9.2 mph - N/A   Clear
7:55 PM 68.0 °F - 19.4 °F 16% 30.19 in 10.0 mi West 8.1 mph - N/A   Clear
8:15 PM 68.0 °F - 19.4 °F 16% 30.20 in 10.0 mi WSW 8.1 mph - N/A   Clear
8:35 PM 64.4 °F - 21.2 °F 19% 30.20 in 10.0 mi WSW 8.1 mph - N/A   Clear
8:55 PM 66.2 °F - 19.4 °F 17% 30.21 in 10.0 mi WSW 8.1 mph - N/A   Clear
9:15 PM 64.4 °F - 21.2 °F 19% 30.21 in 10.0 mi WSW 5.8 mph - N/A   Clear
9:35 PM 62.6 °F - 21.2 °F 20% 30.22 in 10.0 mi Calm Calm - N/A   Clear
9:55 PM 57.2 °F - 21.2 °F 25% 30.23 in 10.0 mi NW 4.6 mph - N/A   Clear
10:15 PM 59.0 °F - 23.0 °F 25% 30.24 in 10.0 mi NW 6.9 mph - N/A   Clear
10:35 PM 59.0 °F - 21.2 °F 23% 30.24 in 10.0 mi NNW 5.8 mph - N/A   Clear
10:55 PM 51.8 °F - 23.0 °F 33% 30.24 in 10.0 mi NNW 5.8 mph - N/A   Clear
11:15 PM 51.8 °F - 21.2 °F 30% 30.24 in 10.0 mi NNW 5.8 mph - N/A   Clear
11:35 PM 60.8 °F - 23.0 °F 23% 30.25 in 10.0 mi NW 6.9 mph - N/A   Clear
11:55 PM 62.6 °F - 26.6 °F 26% 30.25 in 10.0 mi West 11.5 mph 16.1 mph N/A   Clear